Location: Ballingbuur
(53.0000°N, 5.7667°E)
Time: 18:45:03
(UTC+00:00)

CRYOSAT 2 - Visible Passes

Search period start: 18 April 2021 00:00
Search period end: 28 April 2021 00:00
Orbit: 717 x 722 km, 92.0° (Epoch: 18 April)

Date Brightness Start Highest point End Pass type
(mag) Time Alt. Az. Time Alt. Az. Time Alt. Az.
18 Apr 5.7 20:31:01 19° ESE 20:33:01 25° ENE 20:37:01 10° NNE visible
18 Apr 4.9 22:10:16 41° SW 22:11:33 54° W 22:16:23 10° NNW visible
19 Apr 6.5 19:41:41 10° E 19:43:17 12° ENE 19:44:54 10° NE visible
19 Apr 4.4 21:19:31 40° SE 21:21:09 63° E 21:26:01 10° N visible
19 Apr 6.2 22:58:44 18° WSW 23:00:25 21° W 23:04:11 10° NNW visible
20 Apr 5.6 20:28:46 19° ESE 20:31:04 27° ENE 20:35:10 10° NNE visible
20 Apr 5.0 22:08:00 35° SW 22:09:39 50° W 22:14:26 10° NNW visible
21 Apr 6.4 19:39:19 10° E 19:41:18 12° ENE 19:43:17 10° NE visible
21 Apr 4.4 21:17:15 36° SSE 21:19:13 68° E 21:24:07 10° N visible
21 Apr 6.4 22:56:29 16° WSW 22:58:33 20° WNW 23:02:09 10° NNW visible
22 Apr 5.5 20:26:30 18° ESE 20:29:06 29° ENE 20:33:18 10° NNE visible
22 Apr 5.1 22:05:43 30° SW 22:07:44 46° W 22:12:29 10° NNW visible
23 Apr 6.4 19:37:02 10° E 19:39:18 13° ENE 19:41:36 10° NE visible
23 Apr 4.3 21:14:58 32° SSE 21:17:16 74° E 21:22:12 10° N visible
23 Apr 6.5 22:54:12 13° WSW 22:56:41 19° WNW 23:00:06 10° NNW visible
24 Apr 5.4 20:24:12 17° ESE 20:27:08 31° ENE 20:31:26 10° NNE visible
24 Apr 5.3 22:03:26 25° SW 22:05:50 43° W 22:10:32 10° NNW visible
25 Apr 6.3 19:34:47 10° E 19:37:19 14° ENE 19:39:52 10° NNE visible
25 Apr 4.3 21:12:40 27° SSE 21:15:21 79° E 21:20:17 10° N visible
25 Apr 6.6 22:51:55 11° WSW 22:54:49 17° WNW 22:58:02 10° NW visible
26 Apr 5.3 20:21:55 16° SE 20:25:10 33° ENE 20:29:34 10° N visible
26 Apr 5.4 22:01:09 21° SW 22:03:56 40° W 22:08:34 10° NNW visible
27 Apr 6.3 19:32:34 10° E 19:35:19 15° ENE 19:38:07 10° NNE visible
27 Apr 4.3 21:10:23 24° S 21:13:25 85° E 21:18:21 10° N visible
27 Apr 6.7 22:49:56 10° WSW 22:52:56 16° WNW 22:55:58 10° NW visible
